McGuire AFB, NJ

5:12 AM EDT on August 18, 2017 (GMT -0400)
McGuire Air Force Base

Weather History for KWRI - May, 2013

Change the Weather History Date:

Saturday, May 18, 2013

  Actual Average Record
Temperature  
Mean Temperature 59 °F -  
Max Temperature 66 °F 69 °F 92 °F (2017)
Min Temperature 52 °F 49 °F 37 °F (2003)
Degree Days  
Heating Degree Days 6    
Growing Degree Days 9 (Base 50)    
Moisture  
Dew Point 54 °F    
Average Humidity 85    
Maximum Humidity 100    
Minimum Humidity 56    
Precipitation  
Precipitation 0.16 in - - ()
Sea Level Pressure  
Sea Level Pressure 30.26 in    
Wind  
Wind Speed 5 mph (ESE)    
Max Wind Speed 13 mph    
Max Gust Speed 20 mph    
Visibility 9 miles    
Events Rain    
Averages and records for this station are not official NWS values.
T = Trace of Precipitation, MM = Missing Value Source: NWS Daily Summary

Daily Weather History Graph

Daily Weather History Graph

Search for Another Location

Airport or City:

Trip Planner

Search our weather history database for the weather conditions in past years. The results will help you decide how hot, cold, wet, or windy it might be!

Date:

Astronomy

May. 18, 2013 Rise Set
Actual Time 5:40 AM EDT 8:09 PM EDT
Civil Twilight 5:09 AM EDT 8:40 PM EDT
Nautical Twilight 4:30 AM EDT 9:19 PM EDT
Astronomical Twilight 3:48 AM EDT 10:02 PM EDT
Moon 1:10 PM EDT 1:31 AM EDT
Length of Visible Light 15h 31m
Length of Day
14h 29m
First Quarter, 55% of the Moon is Illuminated
May 18
First Quarter
May 25
Full
May 31
Last Quarter
Jun 8
New
Jun 16
First Quarter

Hourly Weather History & Observations

Time (EDT) Temp. Dew Point Humidity Pressure Visibility Wind Dir Wind Speed Gust Speed Precip Events Conditions
12:58 AM 53.4 °F 45.9 °F 76% 30.20 in 10.0 mi NE 2.3 mph - N/A   Clear
1:58 AM 52.0 °F 48.2 °F 87% 30.21 in 10.0 mi ENE 1.2 mph - N/A   Mostly Cloudy
2:58 AM 53.2 °F 47.1 °F 80% 30.20 in 10.0 mi Calm Calm - N/A   Overcast
3:58 AM 53.6 °F 49.1 °F 85% 30.21 in 10.0 mi South 1.2 mph - N/A   Overcast
4:58 AM 54.7 °F 48.9 °F 81% 30.23 in 10.0 mi Calm Calm - N/A   Overcast
5:20 AM 53.6 °F 50.0 °F 88% 30.23 in 10.0 mi Calm Calm - N/A Rain Light Rain
5:24 AM 53.6 °F 50.0 °F 88% 30.22 in 10.0 mi SE 3.5 mph - N/A   Mostly Cloudy
5:58 AM 53.1 °F 49.3 °F 87% 30.25 in 10.0 mi East 2.3 mph - 0.00 in   Overcast
6:58 AM 53.4 °F 48.2 °F 82% 30.26 in 10.0 mi ENE 3.5 mph - N/A   Overcast
7:58 AM 55.8 °F 48.9 °F 78% 30.27 in 10.0 mi East 2.3 mph - N/A   Mostly Cloudy
8:58 AM 57.2 °F 50.5 °F 78% 30.28 in 10.0 mi ESE 4.6 mph - N/A   Overcast
9:58 AM 60.1 °F 52.0 °F 75% 30.28 in 10.0 mi Variable 1.2 mph - N/A   Overcast
10:58 AM 63.5 °F 53.8 °F 71% 30.29 in 10.0 mi East 4.6 mph - N/A   Overcast
11:36 AM 64.4 °F 51.8 °F 64% 30.27 in 10.0 mi SE 10.4 mph - N/A   Overcast
11:58 AM 64.8 °F 51.4 °F 62% 30.28 in 10.0 mi SSE 6.9 mph - N/A   Mostly Cloudy
12:52 PM 64.4 °F 53.6 °F 68% 30.26 in 10.0 mi South 8.1 mph - N/A Rain Light Rain
12:58 PM 65.1 °F 53.8 °F 67% 30.27 in 10.0 mi South 10.4 mph - 0.00 in Rain Light Rain
1:01 PM 64.4 °F 53.6 °F 68% 30.26 in 10.0 mi SSE 12.7 mph 19.6 mph N/A   Mostly Cloudy
1:54 PM 66.2 °F 53.6 °F 64% 30.25 in 10.0 mi South 8.1 mph - N/A Rain Light Rain
1:58 PM 66.9 °F 52.9 °F 61% 30.26 in 10.0 mi SSE 9.2 mph - 0.00 in Rain Light Rain
2:04 PM 66.2 °F 50.0 °F 56% 30.25 in 10.0 mi SSE 10.4 mph - N/A   Mostly Cloudy
2:58 PM 64.8 °F 52.3 °F 64% 30.26 in 10.0 mi SSE 11.5 mph 17.3 mph 0.00 in   Overcast
3:09 PM 64.4 °F 53.6 °F 68% 30.25 in 10.0 mi South 10.4 mph - N/A Rain Light Rain
3:35 PM 62.6 °F 51.8 °F 68% 30.26 in 10.0 mi South 11.5 mph - N/A   Mostly Cloudy
3:40 PM 62.6 °F 51.8 °F 68% 30.26 in 10.0 mi SSE 10.4 mph - N/A   Light Drizzle
3:58 PM 62.2 °F 53.6 °F 73% 30.27 in 10.0 mi SSE 6.9 mph - 0.00 in Rain Light Rain
4:12 PM 62.6 °F 53.6 °F 72% 30.26 in 10.0 mi SE 5.8 mph - N/A   Overcast
4:16 PM 62.6 °F 53.6 °F 72% 30.26 in 9.0 mi SE 6.9 mph - N/A Rain Light Rain
4:32 PM 60.8 °F 53.6 °F 77% 30.27 in 5.0 mi ESE 5.8 mph - N/A   Haze
4:34 PM 60.8 °F 53.6 °F 77% 30.27 in 5.0 mi SE 4.6 mph - N/A Rain Light Rain
4:44 PM 60.8 °F 55.4 °F 82% 30.27 in 4.0 mi ESE 6.9 mph - N/A   Haze
4:47 PM 60.8 °F 55.4 °F 82% 30.27 in 4.0 mi ESE 6.9 mph - N/A Rain Light Rain
4:58 PM 61.2 °F 54.7 °F 79% 30.28 in 4.0 mi ESE 8.1 mph - 0.00 in Rain Light Rain
5:11 PM 60.8 °F 55.4 °F 82% 30.26 in 4.0 mi ESE 6.9 mph - N/A   Haze
5:57 PM 59.0 °F 55.4 °F 88% 30.26 in 10.0 mi ESE 5.8 mph - N/A Rain Light Rain
5:58 PM 59.0 °F 55.4 °F 88% 30.28 in 10.0 mi ESE 5.8 mph - 0.00 in Rain Light Rain
6:37 PM 59.0 °F 57.2 °F 94% 30.27 in 10.0 mi East 8.1 mph - N/A   Overcast
6:50 PM 59.0 °F 55.4 °F 88% 30.27 in 10.0 mi ESE 5.8 mph - N/A Rain Light Rain
6:58 PM 58.5 °F 56.1 °F 92% 30.28 in 10.0 mi East 5.8 mph - 0.02 in Rain Light Rain
7:05 PM 59.0 °F 55.4 °F 88% 30.27 in 10.0 mi East 6.9 mph - N/A   Overcast
7:18 PM 59.0 °F 55.4 °F 88% 30.27 in 10.0 mi ESE 4.6 mph - N/A Rain Light Rain
7:58 PM 57.6 °F 55.9 °F 94% 30.28 in 10.0 mi ESE 5.8 mph - 0.01 in Rain Light Rain
8:04 PM 57.2 °F 55.4 °F 94% 30.27 in 10.0 mi ESE 6.9 mph - N/A   Overcast
8:14 PM 57.2 °F 55.4 °F 94% 30.26 in 10.0 mi East 5.8 mph - N/A Rain Light Rain
8:22 PM 57.2 °F 55.4 °F 94% 30.26 in 10.0 mi East 5.8 mph - N/A   Overcast
8:31 PM 57.2 °F 55.4 °F 94% 30.26 in 10.0 mi East 5.8 mph - N/A Rain Light Rain
8:58 PM 57.0 °F 55.9 °F 96% 30.28 in 10.0 mi East 4.6 mph - 0.01 in Rain Light Rain
8:59 PM 57.2 °F 55.4 °F 94% 30.27 in 10.0 mi East 3.5 mph - N/A   Overcast
9:41 PM 57.2 °F 55.4 °F 94% 30.28 in 10.0 mi East 4.6 mph - N/A Rain Light Rain
9:49 PM 57.2 °F 55.4 °F 94% 30.27 in 9.0 mi East 5.8 mph - N/A Rain Light Rain
9:58 PM 56.7 °F 55.8 °F 97% 30.28 in 8.0 mi ESE 5.8 mph - 0.01 in Rain Light Rain
10:23 PM 57.2 °F 55.4 °F 94% 30.27 in 9.0 mi ESE 4.6 mph - N/A Rain Light Rain
10:58 PM 56.1 °F 55.2 °F 97% 30.28 in 10.0 mi ESE 6.9 mph - 0.03 in   Light Drizzle
11:04 PM 55.4 °F 55.4 °F 100% 30.27 in 10.0 mi ESE 6.9 mph - N/A   Overcast
11:06 PM 55.4 °F 55.4 °F 100% 30.27 in 10.0 mi ESE 6.9 mph - N/A   Light Drizzle
11:12 PM 55.4 °F 55.4 °F 100% 30.27 in 9.0 mi SE 6.9 mph - N/A Rain Light Rain
11:19 PM 55.4 °F 55.4 °F 100% 30.27 in 7.0 mi ESE 5.8 mph - N/A Rain Light Rain
11:23 PM 55.4 °F 55.4 °F 100% 30.27 in 7.0 mi ESE 8.1 mph - N/A Rain Light Rain
11:37 PM 55.4 °F 55.4 °F 100% 30.26 in 7.0 mi ESE 5.8 mph - N/A Rain Light Rain
11:41 PM 55.4 °F 55.4 °F 100% 30.27 in 5.0 mi ESE 6.9 mph - N/A Rain Light Rain
11:43 PM 55.4 °F 55.4 °F 100% 30.27 in 4.0 mi East 5.8 mph - N/A Rain Rain
11:45 PM 55.4 °F 55.4 °F 100% 30.27 in 4.0 mi East 5.8 mph - N/A Rain Rain
11:49 PM 55.4 °F 55.4 °F 100% 30.27 in 4.0 mi East 4.6 mph - N/A Rain Rain
11:53 PM 55.4 °F 55.4 °F 100% 30.27 in 5.0 mi East 5.8 mph - N/A Rain Light Rain
11:54 PM 55.4 °F 55.4 °F 100% 30.27 in 5.0 mi ESE 4.6 mph - N/A Rain Light Rain
11:58 PM 55.4 °F 55.4 °F 100% 30.28 in 6.0 mi Variable 6.9 mph - 0.08 in Rain Light Rain
11:59 PM 55.4 °F 55.4 °F 100% 30.27 in 8.0 mi ESE 5.8 mph - N/A Rain Light Rain